Regional Weather Roundup
Issued by NWS Cleveland, OH

Home | Current Version | Previous Version | Text Only | Print | Product List | Glossary Off
Versions: 1 2 3 4 5 6 7 8 9 10 11 12 13 14 15 16 17 18 19 20 21 22 23 24 25 26 27 28 29 30 31 32 33 34 35 36 37 38 39 40 41 42 43 44 45 46 47 48 49 50

173
ASUS41 KCLE 200910
RWRCLE
OHIO REGIONAL WEATHER ROUNDUP
NATIONAL WEATHER SERVICE WILMINGTON, OH
500 AM EDT WED SEP 20 2017

NOTE: "FAIR" INDICATES FEW OR NO CLOUDS BELOW 12,000 FEET WITH NO
SIGNIFICANT WEATHER AND/OR OBSTRUCTIONS TO VISIBILITY.

OHZ001>008-015>018-024>027-034-035-043-044-201000-
   NORTHWEST OHIO

CITY           SKY/WX    TMP DP  RH WIND       PRES   REMARKS
DEFIANCE       FOG       64  63  96 CALM      29.95R VSB 1/4
FINDLAY        FAIR      65  62  90 S5        29.95S
TOLEDO EXPRESS FAIR      64  32  30 CALM      29.95S FOG
TOLEDO EXEC    FAIR      65  64  97 S5        29.95F FOG
LIMA           FAIR      65  65 100 S5        29.96S
$$

OHZ009>014-019>023-028>033-038-089-201000-
   NORTHEAST OHIO

CITY           SKY/WX    TMP DP  RH WIND       PRES   REMARKS
CLE-HOPKINS    MOCLDY    70  65  84 CALM      29.99R
CLE-LAKEFRONT  FAIR      70  64  81 S5        29.96S
CUY CO. ARPT   NOT AVBL
LORAIN-ELYRIA  HAZE      63  58  83 CALM      29.98S VSB 1
ASHTABULA      MOCLDY    65  64  97 SE3       29.99S
AKRON-CANTON   MOCLDY    67  63  87 N3        29.99S
WOOSTER        CLOUDY    62  61  96 CALM      30.00R FOG
MANSFIELD      FAIR      65  64  97 CALM      29.99S
YOUNGSTOWN     CLOUDY    66  65  96 E5        29.99S
$$

OHZ042-051>053-060>062-070>072-077>081-201000-
  SOUTHWEST OHIO

CITY           SKY/WX    TMP DP  RH WIND       PRES   REMARKS
CINC-COVINGTON FAIR      62  62 100 S5        29.98R FOG
CINC-LUNKEN    FOG       64  64 100 CALM      29.98R VSB 1/4
HAMILTON       FOG       60  60 100 CALM      29.99R VSB 1/4
DAYTON         MOCLDY    65  64  97 S5        29.98S FOG
WRIGHT-PAT AFB PTCLDY    63  63 100 CALM      29.97S
DAYTON GENERAL FAIR      65  64  97 SW5       29.97S FOG
WILMINGTON     FOG       60  60 100 CALM      29.98S VSB 1/4
$$

OHZ036-037-039>041-045>050-054>059-063>069-073>076-082>088-201000-
  CENTRAL AND SOUTHEAST OHIO

CITY           SKY/WX    TMP DP  RH WIND       PRES   REMARKS
COLUMBUS       CLOUDY    70  66  87 CALM      29.97R
OSU AIRPORT    CLOUDY    68  68 100 S3        29.98R
BOLTON FIELD   CLOUDY    67  67 100 CALM      29.99R FOG
RICKENBACK AFB MOCLDY    65  65 100 CALM      29.98R
NEWARK         CLOUDY    66  64  93 CALM      29.98R FOG
MARION         FAIR      64  62  93 CALM      29.99R FOG
LANCASTER      CLOUDY    63  63 100 CALM      29.98S FOG
ZANESVILLE     CLOUDY    64  62  93 CALM      29.99R FOG
NEW PHILLY     FOG       64  64 100 CALM      29.99S VSB 3/4
$$




USA.gov is the U.S. government's official web portal to all federal, state and local government web resources and services.